Year,Month,Day,Hour,Minute,Value (Times are PST for temperature in C)
2018,08,15,00,00,17.10
2018,08,15,00,01,17.10
2018,08,15,00,02,17.10
2018,08,15,00,03,17.10
2018,08,15,00,04,17.10
2018,08,15,00,05,17.10
2018,08,15,00,06,17.10
2018,08,15,00,07,17.10
2018,08,15,00,08,17.10
2018,08,15,00,09,17.10
2018,08,15,00,10,17.10
2018,08,15,00,11,17.10
2018,08,15,00,12,17.10
2018,08,15,00,13,17.10
2018,08,15,00,14,17.10
2018,08,15,00,15,17.10
2018,08,15,00,16,17.10
2018,08,15,00,17,17.10
2018,08,15,00,18,17.10
2018,08,15,00,19,17.10
2018,08,15,00,20,17.10
2018,08,15,00,21,17.10
2018,08,15,00,22,17.10
2018,08,15,00,23,17.10
2018,08,15,00,24,17.10
2018,08,15,00,25,17.00
2018,08,15,00,26,17.00
2018,08,15,00,27,17.00
2018,08,15,00,28,16.90
2018,08,15,00,29,16.90
2018,08,15,00,30,16.90
2018,08,15,00,31,16.80
2018,08,15,00,32,16.80
2018,08,15,00,33,16.80
2018,08,15,00,34,16.70
2018,08,15,00,35,16.70
2018,08,15,00,36,16.70
2018,08,15,00,37,16.60
2018,08,15,00,38,16.60
2018,08,15,00,39,16.60
2018,08,15,00,40,16.60
2018,08,15,00,41,16.60
2018,08,15,00,42,16.60
2018,08,15,00,43,16.60
2018,08,15,00,44,16.60
2018,08,15,00,45,16.50
2018,08,15,00,46,16.50
2018,08,15,00,47,16.50
2018,08,15,00,48,16.50
2018,08,15,00,49,16.50
2018,08,15,00,50,16.50
2018,08,15,00,51,16.40
2018,08,15,00,52,16.40
2018,08,15,00,53,16.40
2018,08,15,00,54,16.30
2018,08,15,00,55,16.30
2018,08,15,00,56,16.30
2018,08,15,00,57,16.30
2018,08,15,00,58,16.30
2018,08,15,00,59,16.20
2018,08,15,01,00,16.20
2018,08,15,01,01,16.20
2018,08,15,01,02,16.20
2018,08,15,01,03,16.10
2018,08,15,01,04,16.10
2018,08,15,01,05,16.10
2018,08,15,01,06,16.10
2018,08,15,01,07,16.10
2018,08,15,01,08,16.10
2018,08,15,01,09,16.10
2018,08,15,01,10,16.00
2018,08,15,01,11,16.00
2018,08,15,01,12,16.00
2018,08,15,01,13,15.90
2018,08,15,01,14,15.90
2018,08,15,01,15,15.90
2018,08,15,01,16,15.90
2018,08,15,01,17,15.90
2018,08,15,01,18,15.90
2018,08,15,01,19,15.90
2018,08,15,01,20,15.90
2018,08,15,01,21,15.80
2018,08,15,01,22,15.80
2018,08,15,01,23,15.80
2018,08,15,01,24,15.80
2018,08,15,01,25,15.80
2018,08,15,01,26,15.90
2018,08,15,01,27,15.80
2018,08,15,01,28,15.80
2018,08,15,01,29,15.80
2018,08,15,01,30,15.80
2018,08,15,01,31,15.80
2018,08,15,01,32,15.80
2018,08,15,01,33,15.80
2018,08,15,01,34,15.80
2018,08,15,01,35,15.80
2018,08,15,01,36,15.80
2018,08,15,01,37,15.80
2018,08,15,01,38,15.80
2018,08,15,01,39,15.80
2018,08,15,01,40,15.70
2018,08,15,01,41,15.70
2018,08,15,01,42,15.70
2018,08,15,01,43,15.70
2018,08,15,01,44,15.70
2018,08,15,01,45,15.70
2018,08,15,01,46,15.70
2018,08,15,01,47,15.70
2018,08,15,01,48,15.70
2018,08,15,01,49,15.70
2018,08,15,01,50,15.70
2018,08,15,01,51,15.70
2018,08,15,01,52,15.70
2018,08,15,01,53,15.70
2018,08,15,01,54,15.70
2018,08,15,01,55,15.70
2018,08,15,01,56,15.70
2018,08,15,01,57,15.70
2018,08,15,01,58,15.70
2018,08,15,01,59,15.70
2018,08,15,02,00,15.70
2018,08,15,02,01,15.70
2018,08,15,02,02,15.70
2018,08,15,02,03,15.70
2018,08,15,02,04,15.70
2018,08,15,02,05,15.70
2018,08,15,02,06,15.70
2018,08,15,02,07,15.70
2018,08,15,02,08,15.70
2018,08,15,02,09,15.70
2018,08,15,02,10,15.70
2018,08,15,02,11,15.70
2018,08,15,02,12,15.70
2018,08,15,02,13,15.70
2018,08,15,02,14,15.70
2018,08,15,02,15,15.70
2018,08,15,02,16,15.70
2018,08,15,02,17,15.70
2018,08,15,02,18,15.70
2018,08,15,02,19,15.70
2018,08,15,02,20,15.80
2018,08,15,02,21,15.80
2018,08,15,02,22,15.80
2018,08,15,02,23,15.80
2018,08,15,02,24,15.80
2018,08,15,02,25,15.80
2018,08,15,02,26,15.80
2018,08,15,02,27,15.70
2018,08,15,02,28,15.70
2018,08,15,02,29,15.70
2018,08,15,02,30,15.60
2018,08,15,02,31,15.50
2018,08,15,02,32,15.50
2018,08,15,02,33,15.50
2018,08,15,02,34,15.40
2018,08,15,02,35,15.50
2018,08,15,02,36,15.40
2018,08,15,02,37,15.40
2018,08,15,02,38,15.40
2018,08,15,02,39,15.40
2018,08,15,02,40,15.40
2018,08,15,02,41,15.40
2018,08,15,02,42,15.30
2018,08,15,02,43,15.30
2018,08,15,02,44,15.30
2018,08,15,02,45,15.30
2018,08,15,02,46,15.40
2018,08,15,02,47,15.40
2018,08,15,02,48,15.40
2018,08,15,02,49,15.30
2018,08,15,02,50,15.30
2018,08,15,02,51,15.30
2018,08,15,02,52,15.30
2018,08,15,02,53,15.30
2018,08,15,02,54,15.30
2018,08,15,02,55,15.40
2018,08,15,02,56,15.40
2018,08,15,02,57,15.40
2018,08,15,02,58,15.40
2018,08,15,02,59,15.40
2018,08,15,03,00,15.40
2018,08,15,03,01,15.40
2018,08,15,03,02,15.40
2018,08,15,03,03,15.40
2018,08,15,03,04,15.30
2018,08,15,03,05,15.30
2018,08,15,03,06,15.20
2018,08,15,03,07,15.20
2018,08,15,03,08,15.10
2018,08,15,03,09,15.10
2018,08,15,03,10,15.00
2018,08,15,03,11,14.90
2018,08,15,03,12,14.90
2018,08,15,03,13,14.80
2018,08,15,03,14,14.80
2018,08,15,03,15,14.80
2018,08,15,03,16,14.80
2018,08,15,03,17,14.80
2018,08,15,03,18,14.80
2018,08,15,03,19,14.80
2018,08,15,03,20,14.80
2018,08,15,03,21,14.80
2018,08,15,03,22,14.80
2018,08,15,03,23,14.80
2018,08,15,03,24,14.80
2018,08,15,03,25,14.80
2018,08,15,03,26,14.80
2018,08,15,03,27,14.80
2018,08,15,03,28,14.80
2018,08,15,03,29,14.80
2018,08,15,03,30,14.80
2018,08,15,03,31,14.80
2018,08,15,03,32,14.80
2018,08,15,03,33,14.90
2018,08,15,03,34,14.90
2018,08,15,03,35,14.90
2018,08,15,03,36,14.90
2018,08,15,03,37,14.90
2018,08,15,03,38,14.90
2018,08,15,03,39,14.90
2018,08,15,03,40,14.90
2018,08,15,03,41,14.90
2018,08,15,03,42,14.90
2018,08,15,03,43,14.80
2018,08,15,03,44,14.80
2018,08,15,03,45,14.80
2018,08,15,03,46,14.70
2018,08,15,03,47,14.70
2018,08,15,03,48,14.70
2018,08,15,03,49,14.70
2018,08,15,03,50,14.70
2018,08,15,03,51,14.70
2018,08,15,03,52,14.70
2018,08,15,03,53,14.70
2018,08,15,03,54,14.70
2018,08,15,03,55,14.70
2018,08,15,03,56,14.70
2018,08,15,03,57,14.70
2018,08,15,03,58,14.70
2018,08,15,03,59,14.70
2018,08,15,04,00,14.70
2018,08,15,04,01,14.60
2018,08,15,04,02,14.60
2018,08,15,04,03,14.60
2018,08,15,04,04,14.60
2018,08,15,04,05,14.60
2018,08,15,04,06,14.50
2018,08,15,04,07,14.50
2018,08,15,04,08,14.50
2018,08,15,04,09,14.40
2018,08,15,04,10,14.40
2018,08,15,04,11,14.40
2018,08,15,04,12,14.40
2018,08,15,04,13,14.40
2018,08,15,04,14,14.40
2018,08,15,04,15,14.40
2018,08,15,04,16,14.40
2018,08,15,04,17,14.40
2018,08,15,04,18,14.40
2018,08,15,04,19,14.40
2018,08,15,04,20,14.40
2018,08,15,04,21,14.30
2018,08,15,04,22,14.30
2018,08,15,04,23,14.30
2018,08,15,04,24,14.30
2018,08,15,04,25,14.30
2018,08,15,04,26,14.30
2018,08,15,04,27,14.30
2018,08,15,04,28,14.30
2018,08,15,04,29,14.30
2018,08,15,04,30,14.30
2018,08,15,04,31,14.30
2018,08,15,04,32,14.30
2018,08,15,04,33,14.30
2018,08,15,04,34,14.30
2018,08,15,04,35,14.30
2018,08,15,04,36,14.20
2018,08,15,04,37,14.20
2018,08,15,04,38,14.20
2018,08,15,04,39,14.20
2018,08,15,04,40,14.20
2018,08,15,04,41,14.20
2018,08,15,04,42,14.20
2018,08,15,04,43,14.20
2018,08,15,04,44,14.30
2018,08,15,04,45,14.30
2018,08,15,04,46,14.30
2018,08,15,04,47,14.30
2018,08,15,04,48,14.30
2018,08,15,04,49,14.30
2018,08,15,04,50,14.30
2018,08,15,04,51,14.30
2018,08,15,04,52,14.30
2018,08,15,04,53,14.30
2018,08,15,04,54,14.30
2018,08,15,04,55,14.30
2018,08,15,04,56,14.30
2018,08,15,04,57,14.30
2018,08,15,04,58,14.40
2018,08,15,04,59,14.40
2018,08,15,05,00,14.40
2018,08,15,05,01,14.50
2018,08,15,05,02,14.50
2018,08,15,05,03,14.50
2018,08,15,05,04,14.50
2018,08,15,05,05,14.50
2018,08,15,05,06,14.50
2018,08,15,05,07,14.50
2018,08,15,05,08,14.50
2018,08,15,05,09,14.40
2018,08,15,05,10,14.40
2018,08,15,05,11,14.40
2018,08,15,05,12,14.30
2018,08,15,05,13,14.20
2018,08,15,05,14,14.10
2018,08,15,05,15,14.10
2018,08,15,05,16,14.00
2018,08,15,05,17,13.90
2018,08,15,05,18,13.90
2018,08,15,05,19,13.90
2018,08,15,05,20,13.90
2018,08,15,05,21,13.80
2018,08,15,05,22,13.80
2018,08,15,05,23,13.80
2018,08,15,05,24,13.80
2018,08,15,05,25,13.70
2018,08,15,05,26,13.70
2018,08,15,05,27,13.70
2018,08,15,05,28,13.60
2018,08,15,05,29,13.60
2018,08,15,05,30,13.50
2018,08,15,05,31,13.50
2018,08,15,05,32,13.40
2018,08,15,05,33,13.40
2018,08,15,05,34,13.30
2018,08,15,05,35,13.30
2018,08,15,05,36,13.30
2018,08,15,05,37,13.30
2018,08,15,05,38,13.20
2018,08,15,05,39,13.20
2018,08,15,05,40,13.30
2018,08,15,05,41,13.30
2018,08,15,05,42,13.20
2018,08,15,05,43,13.30
2018,08,15,05,44,13.30
2018,08,15,05,45,13.30
2018,08,15,05,46,13.40
2018,08,15,05,47,13.40
2018,08,15,05,48,13.40
2018,08,15,05,49,13.40
2018,08,15,05,50,13.40
2018,08,15,05,51,13.40
2018,08,15,05,52,13.40
2018,08,15,05,53,13.50
2018,08,15,05,54,13.50
2018,08,15,05,55,13.60
2018,08,15,05,56,13.50
2018,08,15,05,57,13.50
2018,08,15,05,58,13.50
2018,08,15,05,59,13.50
2018,08,15,06,00,13.40
2018,08,15,06,01,13.40
2018,08,15,06,02,13.40
2018,08,15,06,03,13.40
2018,08,15,06,04,13.30
2018,08,15,06,05,13.30
2018,08,15,06,06,13.20
2018,08,15,06,07,13.20
2018,08,15,06,08,13.20
2018,08,15,06,09,13.20
2018,08,15,06,10,13.20
2018,08,15,06,11,13.20
2018,08,15,06,12,13.20
2018,08,15,06,13,13.20
2018,08,15,06,14,13.20
2018,08,15,06,15,13.20
2018,08,15,06,16,13.20
2018,08,15,06,17,13.20
2018,08,15,06,18,13.10
2018,08,15,06,19,13.10
2018,08,15,06,20,13.10
2018,08,15,06,21,13.10
2018,08,15,06,22,13.10
2018,08,15,06,23,13.20
2018,08,15,06,24,13.20
2018,08,15,06,25,13.20
2018,08,15,06,26,13.20
2018,08,15,06,27,13.20
2018,08,15,06,28,13.30
2018,08,15,06,29,13.30
2018,08,15,06,30,13.30
2018,08,15,06,31,13.30
2018,08,15,06,32,13.30
2018,08,15,06,33,13.30
2018,08,15,06,34,13.30
2018,08,15,06,35,13.30
2018,08,15,06,36,13.30
2018,08,15,06,37,13.30
2018,08,15,06,38,13.30
2018,08,15,06,39,13.30
2018,08,15,06,40,13.20
2018,08,15,06,41,13.20
2018,08,15,06,42,13.20
2018,08,15,06,43,13.20
2018,08,15,06,44,13.20
2018,08,15,06,45,13.30
2018,08,15,06,46,13.30
2018,08,15,06,47,13.30
2018,08,15,06,48,13.40
2018,08,15,06,49,13.40
2018,08,15,06,50,13.40
2018,08,15,06,51,13.40
2018,08,15,06,52,13.50
2018,08,15,06,53,13.50
2018,08,15,06,54,13.60
2018,08,15,06,55,13.60
2018,08,15,06,56,13.60
2018,08,15,06,57,13.60
2018,08,15,06,58,13.60
2018,08,15,06,59,13.60
2018,08,15,07,00,13.60
2018,08,15,07,01,13.60
2018,08,15,07,02,13.60
2018,08,15,07,03,13.60
2018,08,15,07,04,13.60
2018,08,15,07,05,13.60
2018,08,15,07,06,13.60
2018,08,15,07,07,13.60
2018,08,15,07,08,13.50
2018,08,15,07,09,13.50
2018,08,15,07,10,13.50
2018,08,15,07,11,13.50
2018,08,15,07,12,13.50
2018,08,15,07,13,13.50
2018,08,15,07,14,13.50
2018,08,15,07,15,13.60
2018,08,15,07,16,13.60
2018,08,15,07,17,13.60
2018,08,15,07,18,13.60
2018,08,15,07,19,13.60
2018,08,15,07,20,13.60
2018,08,15,07,21,13.60
2018,08,15,07,22,13.60
2018,08,15,07,23,13.70
2018,08,15,07,24,13.70
2018,08,15,07,25,13.70
2018,08,15,07,26,13.70
2018,08,15,07,27,13.70
2018,08,15,07,28,13.70
2018,08,15,07,29,13.70
2018,08,15,07,30,13.80
2018,08,15,07,31,13.80
2018,08,15,07,32,13.80
2018,08,15,07,33,13.90
2018,08,15,07,34,13.90
2018,08,15,07,35,14.00
2018,08,15,07,36,14.10
2018,08,15,07,37,14.10
2018,08,15,07,38,14.20
2018,08,15,07,39,14.30
2018,08,15,07,40,14.30
2018,08,15,07,41,14.40
2018,08,15,07,42,14.40
2018,08,15,07,43,14.40
2018,08,15,07,44,14.50
2018,08,15,07,45,14.60
2018,08,15,07,46,14.60
2018,08,15,07,47,14.60
2018,08,15,07,48,14.60
2018,08,15,07,49,14.70
2018,08,15,07,50,14.70
2018,08,15,07,51,14.70
2018,08,15,07,52,14.70
2018,08,15,07,53,14.70
2018,08,15,07,54,14.80
2018,08,15,07,55,14.80
2018,08,15,07,56,14.80
2018,08,15,07,57,14.90
2018,08,15,07,58,14.90
2018,08,15,07,59,14.90
2018,08,15,08,00,15.00
2018,08,15,08,01,15.00
2018,08,15,08,02,15.10
2018,08,15,08,03,15.20
2018,08,15,08,04,15.20
2018,08,15,08,05,15.30
2018,08,15,08,06,15.30
2018,08,15,08,07,15.30
2018,08,15,08,08,15.40
2018,08,15,08,09,15.50
2018,08,15,08,10,15.50
2018,08,15,08,11,15.60
2018,08,15,08,12,15.60
2018,08,15,08,13,15.70
2018,08,15,08,14,15.70
2018,08,15,08,15,15.80
2018,08,15,08,16,15.80
2018,08,15,08,17,15.90
2018,08,15,08,18,16.00
2018,08,15,08,19,16.10
2018,08,15,08,20,16.10
2018,08,15,08,21,16.20
2018,08,15,08,22,16.30
2018,08,15,08,23,16.30
2018,08,15,08,24,16.40
2018,08,15,08,25,16.50
2018,08,15,08,26,16.60
2018,08,15,08,27,16.60
2018,08,15,08,28,16.70
2018,08,15,08,29,16.70
2018,08,15,08,30,16.80
2018,08,15,08,31,16.90
2018,08,15,08,32,17.00
2018,08,15,08,33,17.00
2018,08,15,08,34,17.10
2018,08,15,08,35,17.20
2018,08,15,08,36,17.30
2018,08,15,08,37,17.30
2018,08,15,08,38,17.40
2018,08,15,08,39,17.50
2018,08,15,08,40,17.60
2018,08,15,08,41,17.70
2018,08,15,08,42,17.70
2018,08,15,08,43,17.80
2018,08,15,08,44,17.90
2018,08,15,08,45,18.00
2018,08,15,08,46,18.00
2018,08,15,08,47,18.10
2018,08,15,08,48,18.20
2018,08,15,08,49,18.30
2018,08,15,08,50,18.30
2018,08,15,08,51,18.40
2018,08,15,08,52,18.50
2018,08,15,08,53,18.60
2018,08,15,08,54,18.70
2018,08,15,08,55,18.80
2018,08,15,08,56,18.90
2018,08,15,08,57,18.90
2018,08,15,08,58,19.00
2018,08,15,08,59,19.10
2018,08,15,09,00,19.10
2018,08,15,09,01,19.20
2018,08,15,09,02,19.20
2018,08,15,09,03,19.30
2018,08,15,09,04,19.40
2018,08,15,09,05,19.50
2018,08,15,09,06,19.60
2018,08,15,09,07,19.60
2018,08,15,09,08,19.70
2018,08,15,09,09,19.80
2018,08,15,09,10,19.80
2018,08,15,09,11,19.90
2018,08,15,09,12,20.00
2018,08,15,09,13,20.00
2018,08,15,09,14,20.10
2018,08,15,09,15,20.20
2018,08,15,09,16,20.20
2018,08,15,09,17,20.30
2018,08,15,09,18,20.40
2018,08,15,09,19,20.50
2018,08,15,09,20,20.50
2018,08,15,09,21,20.60
2018,08,15,09,22,20.70
2018,08,15,09,23,20.80
2018,08,15,09,24,20.80
2018,08,15,09,25,20.90
2018,08,15,09,26,20.90
2018,08,15,09,27,20.90
2018,08,15,09,28,21.00
2018,08,15,09,29,21.00
2018,08,15,09,30,21.10
2018,08,15,09,31,21.10
2018,08,15,09,32,21.10
2018,08,15,09,33,21.10
2018,08,15,09,34,21.10
2018,08,15,09,35,21.20
2018,08,15,09,36,21.20
2018,08,15,09,37,21.20
2018,08,15,09,38,21.30
2018,08,15,09,39,21.30
2018,08,15,09,40,21.30
2018,08,15,09,41,21.30
2018,08,15,09,42,21.40
2018,08,15,09,43,21.40
2018,08,15,09,44,21.40
2018,08,15,09,45,21.50
2018,08,15,09,46,21.50
2018,08,15,09,47,21.60
2018,08,15,09,48,21.60
2018,08,15,09,49,21.60
2018,08,15,09,50,21.70
2018,08,15,09,51,21.70
2018,08,15,09,52,21.70
2018,08,15,09,53,21.80
2018,08,15,09,54,21.80
2018,08,15,09,55,21.80
2018,08,15,09,56,21.80
2018,08,15,09,57,21.90
2018,08,15,09,58,21.90
2018,08,15,09,59,21.90
2018,08,15,10,00,21.90
2018,08,15,10,01,21.90
2018,08,15,10,02,21.90
2018,08,15,10,03,21.90
2018,08,15,10,04,21.90
2018,08,15,10,05,21.90
2018,08,15,10,06,21.90
2018,08,15,10,07,22.00
2018,08,15,10,08,22.00
2018,08,15,10,09,22.10
2018,08,15,10,10,22.10
2018,08,15,10,11,22.10
2018,08,15,10,12,22.10
2018,08,15,10,13,22.10
2018,08,15,10,14,22.10
2018,08,15,10,15,22.20
2018,08,15,10,16,22.20
2018,08,15,10,17,22.20
2018,08,15,10,18,22.20
2018,08,15,10,19,22.30
2018,08,15,10,20,22.30
2018,08,15,10,21,22.30
2018,08,15,10,22,22.40
2018,08,15,10,23,22.40
2018,08,15,10,24,22.50
2018,08,15,10,25,22.50
2018,08,15,10,26,22.60
2018,08,15,10,27,22.70
2018,08,15,10,28,22.80
2018,08,15,10,29,22.80
2018,08,15,10,30,22.90
2018,08,15,10,31,22.90
2018,08,15,10,32,22.90
2018,08,15,10,33,22.90
2018,08,15,10,34,22.90
2018,08,15,10,35,22.90
2018,08,15,10,36,22.90
2018,08,15,10,37,23.00
2018,08,15,10,38,23.00
2018,08,15,10,39,23.00
2018,08,15,10,40,23.10
2018,08,15,10,41,23.10
2018,08,15,10,42,23.20
2018,08,15,10,43,23.20
2018,08,15,10,44,23.20
2018,08,15,10,45,23.20
2018,08,15,10,46,23.30
2018,08,15,10,47,23.30
2018,08,15,10,48,23.40
2018,08,15,10,49,23.40
2018,08,15,10,50,23.40
2018,08,15,10,51,23.30
2018,08,15,10,52,23.20
2018,08,15,10,53,23.00
2018,08,15,10,54,22.90
2018,08,15,10,55,22.80
2018,08,15,10,56,22.70
2018,08,15,10,57,22.60
2018,08,15,10,58,22.50
2018,08,15,10,59,22.50
2018,08,15,11,00,22.40
2018,08,15,11,01,22.50
2018,08,15,11,02,22.50
2018,08,15,11,03,22.60
2018,08,15,11,04,22.60
2018,08,15,11,05,22.60
2018,08,15,11,06,22.60
2018,08,15,11,07,22.60
2018,08,15,11,08,22.60
2018,08,15,11,09,22.50
2018,08,15,11,10,22.40
2018,08,15,11,11,22.40
2018,08,15,11,12,22.40
2018,08,15,11,13,22.40
2018,08,15,11,14,22.30
2018,08,15,11,15,22.30
2018,08,15,11,16,22.30
2018,08,15,11,17,22.30
2018,08,15,11,18,22.30
2018,08,15,11,19,22.20
2018,08,15,11,20,22.10
2018,08,15,11,21,22.00
2018,08,15,11,22,22.00
2018,08,15,11,23,21.90
2018,08,15,11,24,21.90
2018,08,15,11,25,21.90
2018,08,15,11,26,21.90
2018,08,15,11,27,21.90
2018,08,15,11,28,21.90
2018,08,15,11,29,21.90
2018,08,15,11,30,21.80
2018,08,15,11,31,21.80
2018,08,15,11,32,21.80
2018,08,15,11,33,21.80
2018,08,15,11,34,21.80
2018,08,15,11,35,21.80
2018,08,15,11,36,21.90
2018,08,15,11,37,21.90
2018,08,15,11,38,22.00
2018,08,15,11,39,22.10
2018,08,15,11,40,22.20
2018,08,15,11,41,22.20
2018,08,15,11,42,22.30
2018,08,15,11,43,22.30
2018,08,15,11,44,22.30
2018,08,15,11,45,22.30
2018,08,15,11,46,22.30
2018,08,15,11,47,22.30
2018,08,15,11,48,22.30
2018,08,15,11,49,22.30
2018,08,15,11,50,22.30
2018,08,15,11,51,22.30
2018,08,15,11,52,22.30
2018,08,15,11,53,22.30
2018,08,15,11,54,22.40
2018,08,15,11,55,22.30
2018,08,15,11,56,22.30
2018,08,15,11,57,22.40
2018,08,15,11,58,22.40
2018,08,15,11,59,22.40
2018,08,15,12,00,22.50
2018,08,15,12,01,22.50
2018,08,15,12,02,22.50
2018,08,15,12,03,22.40
2018,08,15,12,04,22.40
2018,08,15,12,05,22.40
2018,08,15,12,06,22.50
2018,08,15,12,07,22.40
2018,08,15,12,08,22.40
2018,08,15,12,09,22.40
2018,08,15,12,10,22.50
2018,08,15,12,11,22.50
2018,08,15,12,12,22.50
2018,08,15,12,13,22.60
2018,08,15,12,14,22.60
2018,08,15,12,15,22.60
2018,08,15,12,16,22.60
2018,08,15,12,17,22.60
2018,08,15,12,18,22.60
2018,08,15,12,19,22.60
2018,08,15,12,20,22.60
2018,08,15,12,21,22.60
2018,08,15,12,22,22.60
2018,08,15,12,23,22.60
2018,08,15,12,24,22.60
2018,08,15,12,25,22.70
2018,08,15,12,26,22.70
2018,08,15,12,27,22.70
2018,08,15,12,28,22.70
2018,08,15,12,29,22.80
2018,08,15,12,30,22.80
2018,08,15,12,31,22.90
2018,08,15,12,32,23.00
2018,08,15,12,33,23.10
2018,08,15,12,34,23.10
2018,08,15,12,35,23.20
2018,08,15,12,36,23.30
2018,08,15,12,37,23.30
2018,08,15,12,38,23.30
2018,08,15,12,39,23.20
2018,08,15,12,40,23.20
2018,08,15,12,41,23.20
2018,08,15,12,42,23.20
2018,08,15,12,43,23.30
2018,08,15,12,44,23.30
2018,08,15,12,45,23.40
2018,08,15,12,46,23.40
2018,08,15,12,47,23.40
2018,08,15,12,48,23.40
2018,08,15,12,49,23.30
2018,08,15,12,50,23.30
2018,08,15,12,51,23.30
2018,08,15,12,52,23.30
2018,08,15,12,53,23.20
2018,08,15,12,54,23.10
2018,08,15,12,55,23.00
2018,08,15,12,56,22.90
2018,08,15,12,57,22.90
2018,08,15,12,58,23.00
2018,08,15,12,59,23.10
2018,08,15,13,00,23.20
2018,08,15,13,01,23.20
2018,08,15,13,02,23.30
2018,08,15,13,03,23.30
2018,08,15,13,04,23.40
2018,08,15,13,05,23.50
2018,08,15,13,06,23.50
2018,08,15,13,07,23.50
2018,08,15,13,08,23.50
2018,08,15,13,09,23.50
2018,08,15,13,10,23.40
2018,08,15,13,11,23.40
2018,08,15,13,12,23.40
2018,08,15,13,13,23.50
2018,08,15,13,14,23.50
2018,08,15,13,15,23.60
2018,08,15,13,16,23.60
2018,08,15,13,17,23.60
2018,08,15,13,18,23.60
2018,08,15,13,19,23.60
2018,08,15,13,20,23.60
2018,08,15,13,21,23.70
2018,08,15,13,22,23.70
2018,08,15,13,23,23.70
2018,08,15,13,24,23.70
2018,08,15,13,25,23.70
2018,08,15,13,26,23.60
2018,08,15,13,27,23.60
2018,08,15,13,28,23.50
2018,08,15,13,29,23.50
2018,08,15,13,30,23.40
2018,08,15,13,31,23.30
2018,08,15,13,32,23.30
2018,08,15,13,33,23.30
2018,08,15,13,34,23.20
2018,08,15,13,35,23.20
2018,08,15,13,36,23.20
2018,08,15,13,37,23.20
2018,08,15,13,38,23.20
2018,08,15,13,39,23.20
2018,08,15,13,40,23.20
2018,08,15,13,41,23.20
2018,08,15,13,42,23.20
2018,08,15,13,43,23.10
2018,08,15,13,44,23.10
2018,08,15,13,45,23.10
2018,08,15,13,46,23.10
2018,08,15,13,47,23.10
2018,08,15,13,48,23.00
2018,08,15,13,49,23.00
2018,08,15,13,50,23.00
2018,08,15,13,51,23.00
2018,08,15,13,52,23.10
2018,08,15,13,53,23.10
2018,08,15,13,54,23.10
2018,08,15,13,55,23.10
2018,08,15,13,56,23.10
2018,08,15,13,57,23.10
2018,08,15,13,58,23.00
2018,08,15,13,59,23.00
2018,08,15,14,00,22.90
2018,08,15,14,01,22.80
2018,08,15,14,02,22.80
2018,08,15,14,03,22.80
2018,08,15,14,04,22.80
2018,08,15,14,05,22.90
2018,08,15,14,06,22.90
2018,08,15,14,07,22.90
2018,08,15,14,08,22.90
2018,08,15,14,09,22.90
2018,08,15,14,10,22.90
2018,08,15,14,11,22.90
2018,08,15,14,12,22.90
2018,08,15,14,13,22.90
2018,08,15,14,14,22.90
2018,08,15,14,15,22.90
2018,08,15,14,16,22.90
2018,08,15,14,17,22.90
2018,08,15,14,18,22.90
2018,08,15,14,19,23.00
2018,08,15,14,20,23.00
2018,08,15,14,21,23.00
2018,08,15,14,22,23.00
2018,08,15,14,23,23.10
2018,08,15,14,24,23.10
2018,08,15,14,25,23.10
2018,08,15,14,26,23.10
2018,08,15,14,27,23.20
2018,08,15,14,28,23.20
2018,08,15,14,29,23.30
2018,08,15,14,30,23.30
2018,08,15,14,31,23.30
2018,08,15,14,32,23.30
2018,08,15,14,33,23.20
2018,08,15,14,34,23.20
2018,08,15,14,35,23.20
2018,08,15,14,36,23.20
2018,08,15,14,37,23.10
2018,08,15,14,38,23.10
2018,08,15,14,39,23.10
2018,08,15,14,40,23.00
2018,08,15,14,41,23.10
2018,08,15,14,42,23.10
2018,08,15,14,43,23.10
2018,08,15,14,44,23.20
2018,08,15,14,45,23.30
2018,08,15,14,46,23.30
2018,08,15,14,47,23.30
2018,08,15,14,48,23.30
2018,08,15,14,49,23.40
2018,08,15,14,50,23.40
2018,08,15,14,51,23.40
2018,08,15,14,52,23.50
2018,08,15,14,53,23.60
2018,08,15,14,54,23.60
2018,08,15,14,55,23.50
2018,08,15,14,56,23.60
2018,08,15,14,57,23.60
2018,08,15,14,58,23.70
2018,08,15,14,59,23.80
2018,08,15,15,00,23.80
2018,08,15,15,01,23.80
2018,08,15,15,02,23.80
2018,08,15,15,03,23.70
2018,08,15,15,04,23.70
2018,08,15,15,05,23.70
2018,08,15,15,06,23.60
2018,08,15,15,07,23.60
2018,08,15,15,08,23.70
2018,08,15,15,09,23.70
2018,08,15,15,10,23.70
2018,08,15,15,11,23.70
2018,08,15,15,12,23.60
2018,08,15,15,13,23.60
2018,08,15,15,14,23.70
2018,08,15,15,15,23.70
2018,08,15,15,16,23.80
2018,08,15,15,17,23.80
2018,08,15,15,18,23.90
2018,08,15,15,19,23.90
2018,08,15,15,20,23.90
2018,08,15,15,21,23.90
2018,08,15,15,22,23.90
2018,08,15,15,23,23.90
2018,08,15,15,24,24.00
2018,08,15,15,25,24.00
2018,08,15,15,26,24.00
2018,08,15,15,27,23.90
2018,08,15,15,28,23.90
2018,08,15,15,29,23.90
2018,08,15,15,30,23.90
2018,08,15,15,31,23.80
2018,08,15,15,32,23.90
2018,08,15,15,33,23.90
2018,08,15,15,34,24.00
2018,08,15,15,35,24.00
2018,08,15,15,36,24.10
2018,08,15,15,37,24.10
2018,08,15,15,38,24.10
2018,08,15,15,39,24.10
2018,08,15,15,40,24.00
2018,08,15,15,41,24.00
2018,08,15,15,42,23.90
2018,08,15,15,43,23.80
2018,08,15,15,44,23.70
2018,08,15,15,45,23.60
2018,08,15,15,46,23.50
2018,08,15,15,47,23.40
2018,08,15,15,48,23.40
2018,08,15,15,49,23.40
2018,08,15,15,50,23.40
2018,08,15,15,51,23.40
2018,08,15,15,52,23.40
2018,08,15,15,53,23.40
2018,08,15,15,54,23.40
2018,08,15,15,55,23.40
2018,08,15,15,56,23.40
2018,08,15,15,57,23.50
2018,08,15,15,58,23.50
2018,08,15,15,59,23.60
2018,08,15,16,00,23.70
2018,08,15,16,01,23.70
2018,08,15,16,02,23.70
2018,08,15,16,03,23.80
2018,08,15,16,04,23.80
2018,08,15,16,05,23.80
2018,08,15,16,06,23.80
2018,08,15,16,07,23.70
2018,08,15,16,08,23.70
2018,08,15,16,09,23.80
2018,08,15,16,10,23.80
2018,08,15,16,11,23.80
2018,08,15,16,12,23.80
2018,08,15,16,13,23.80
2018,08,15,16,14,23.80
2018,08,15,16,15,23.80
2018,08,15,16,16,23.80
2018,08,15,16,17,23.80
2018,08,15,16,18,23.80
2018,08,15,16,19,23.80
2018,08,15,16,20,23.80
2018,08,15,16,21,23.80
2018,08,15,16,22,23.70
2018,08,15,16,23,23.70
2018,08,15,16,24,23.60
2018,08,15,16,25,23.50
2018,08,15,16,26,23.50
2018,08,15,16,27,23.60
2018,08,15,16,28,23.60
2018,08,15,16,29,23.60
2018,08,15,16,30,23.60
2018,08,15,16,31,23.70
2018,08,15,16,32,23.70
2018,08,15,16,33,23.70
2018,08,15,16,34,23.70
2018,08,15,16,35,23.70
2018,08,15,16,36,23.70
2018,08,15,16,37,23.70
2018,08,15,16,38,23.70
2018,08,15,16,39,23.70
2018,08,15,16,40,23.70
2018,08,15,16,41,23.70
2018,08,15,16,42,23.70
2018,08,15,16,43,23.70
2018,08,15,16,44,23.70
2018,08,15,16,45,23.70
2018,08,15,16,46,23.70
2018,08,15,16,47,23.70
2018,08,15,16,48,23.70
2018,08,15,16,49,23.70
2018,08,15,16,50,23.80
2018,08,15,16,51,23.80
2018,08,15,16,52,23.80
2018,08,15,16,53,23.80
2018,08,15,16,54,23.80
2018,08,15,16,55,23.80
2018,08,15,16,56,23.80
2018,08,15,16,57,23.90
2018,08,15,16,58,23.90
2018,08,15,16,59,24.00
2018,08,15,17,00,24.00
2018,08,15,17,01,24.00
2018,08,15,17,02,24.00
2018,08,15,17,03,24.10
2018,08,15,17,04,24.10
2018,08,15,17,05,24.20
2018,08,15,17,06,24.20
2018,08,15,17,07,24.20
2018,08,15,17,08,24.20
2018,08,15,17,09,24.20
2018,08,15,17,10,24.20
2018,08,15,17,11,24.20
2018,08,15,17,12,24.20
2018,08,15,17,13,24.20
2018,08,15,17,14,24.30
2018,08,15,17,15,24.30
2018,08,15,17,16,24.30
2018,08,15,17,17,24.40
2018,08,15,17,18,24.40
2018,08,15,17,19,24.40